Location: Prague
(50.0830°N, 14.4670°E)
Time: 16:08:22
(UTC+01:00)

BlueWalker 3 - Visible Passes

Search period start: 04 December 2022 00:00
Search period end: 14 December 2022 00:00
Orbit: 501 x 519 km, 53.2° (Epoch: 04 December)

Date Brightness Start Highest point End Pass type
(mag) Time Alt. Az. Time Alt. Az. Time Alt. Az.
04 Dec 2.0 18:02:17 10° WNW 18:06:10 59° N 18:06:44 52° NE visible
04 Dec 5.1 19:41:03 10° WNW 19:41:33 13° WNW 19:41:33 13° WNW visible
05 Dec 2.0 17:43:54 10° WNW 17:47:46 60° N 17:49:10 36° ENE visible
05 Dec 4.5 19:22:39 10° WNW 19:24:00 20° W 19:24:00 20° W visible
06 Dec 2.0 17:25:30 10° WNW 17:29:24 62° NNE 17:31:40 23° E visible
06 Dec 3.8 19:04:16 10° WNW 19:06:31 30° W 19:06:31 30° W visible
07 Dec 2.0 17:07:06 10° WNW 17:11:01 63° NNE 17:14:17 14° E visible
07 Dec 3.0 18:45:53 10° WNW 18:49:07 43° WSW 18:49:07 43° WSW visible
08 Dec 2.0 16:48:42 10° WNW 16:52:37 64° NNE 16:56:29 10° E visible
08 Dec 2.8 18:27:29 10° WNW 18:31:14 45° SSW 18:31:51 40° S visible
09 Dec 2.0 16:30:18 10° WNW 16:34:12 66° NNE 16:38:05 10° E visible
09 Dec 3.0 18:09:05 10° WNW 18:12:48 42° SW 18:14:45 23° SSE visible
10 Dec 3.2 17:50:41 10° WNW 17:54:22 40° SW 17:57:55 11° SE visible
11 Dec 3.4 17:32:16 10° WNW 17:35:56 38° SW 17:39:34 10° SSE visible
12 Dec 3.5 17:13:52 10° WNW 17:17:30 37° SW 17:21:05 10° SSE visible
13 Dec 3.7 16:55:27 10° WNW 16:59:03 35° SW 17:02:36 10° SSE visible
